Weather History for Houston Hull, TX

Change the Weather History Date:

Thursday, September 5, 2013

  Actual Average Record
Temperature  
Mean Temperature 86 °F -  
Max Temperature 96 °F 91 °F 107 °F (2000)
Min Temperature 75 °F 71 °F 54 °F (1974)
Cooling Degree Days 20    
Growing Degree Days 36 (Base 50)    
Moisture  
Dew Point 73 °F    
Average Humidity 70    
Maximum Humidity 94    
Minimum Humidity 43    
Precipitation  
Precipitation 0.00 in - - ()
Sea Level Pressure  
Sea Level Pressure 30.04 in    
Wind  
Wind Speed 4 mph (ESE)    
Max Wind Speed 15 mph    
Max Gust Speed 22 mph    
Visibility 10 miles    
Events      
Averages and records for this station are not official NWS values.
T = Trace of Precipitation, MM = Missing Value Source: NWS Daily Summary

Daily Weather History Graph

Daily Weather History Graph

Search for Another Location

Airport:

Trip Planner

Search our weather history database for the weather conditions in past years. The results will help you decide how hot, cold, wet, or windy it might be!

Date:

Astronomy

Sep. 05, 2013 Rise Set
Actual Time 7:02 AM CDT 7:39 PM CDT
Civil Twilight 6:38 AM CDT 8:03 PM CDT
Nautical Twilight 6:09 AM CDT 8:32 PM CDT
Astronomical Twilight 5:40 AM CDT 9:00 PM CDT
Moon 7:09 AM CDT (9/5) 7:39 PM CDT (9/5)
Length of Visible Light 13h 25m
Length of Day
12h 37m
New Moon, 0% of the Moon is Illuminated
Sep 5
New Moon
Sep 12
First Quarter
Sep 19
Full
Sep 26
Last Quarter
Oct 4
New

Hourly Weather History & Observations

Time (CDT) Temp. Heat Index Dew Point Humidity Pressure Visibility Wind Dir Wind Speed Gust Speed Precip Events Conditions
12:53 AM 75.9 °F - 73.0 °F 91% 30.04 in 10.0 mi Calm Calm - N/A   Clear
1:53 AM 75.9 °F - 73.9 °F 94% 30.02 in 10.0 mi Calm Calm - N/A   Clear
2:53 AM 77.0 °F - 73.9 °F 90% 30.02 in 10.0 mi East 3.5 mph - N/A   Clear
3:53 AM 77.0 °F - 75.0 °F 94% 30.02 in 10.0 mi NNE 3.5 mph - N/A   Clear
4:53 AM 75.9 °F - 73.9 °F 94% 30.02 in 10.0 mi Calm Calm - N/A   Clear
5:53 AM 75.0 °F - 73.0 °F 94% 30.03 in 10.0 mi Calm Calm - N/A   Clear
6:53 AM 75.9 °F - 73.9 °F 94% 30.04 in 10.0 mi Calm Calm - N/A   Clear
7:53 AM 79.0 °F - 75.9 °F 90% 30.06 in 10.0 mi NE 4.6 mph - N/A   Clear
8:53 AM 84.9 °F 94.1 °F 75.9 °F 74% 30.07 in 10.0 mi NE 6.9 mph - N/A   Clear
9:53 AM 88.0 °F 98.5 °F 75.9 °F 67% 30.08 in 10.0 mi NE 6.9 mph - N/A   Mostly Cloudy
10:16 AM 89.6 °F 102.2 °F 77.0 °F 66% 30.08 in 10.0 mi NNE 6.9 mph - N/A   Mostly Cloudy
10:41 AM 89.6 °F 98.2 °F 73.4 °F 59% 30.09 in 10.0 mi East 5.8 mph - N/A   Mostly Cloudy
10:53 AM 88.0 °F 96.5 °F 73.9 °F 63% 30.09 in 10.0 mi ENE 6.9 mph - N/A   Partly Cloudy
11:53 AM 93.0 °F 101.9 °F 73.0 °F 52% 30.07 in 10.0 mi ENE 11.5 mph - N/A   Mostly Cloudy
12:53 PM 93.9 °F 100.8 °F 71.1 °F 47% 30.06 in 10.0 mi East 8.1 mph - N/A   Scattered Clouds
1:53 PM 95.0 °F 101.3 °F 70.0 °F 44% 30.04 in 10.0 mi East 9.2 mph - N/A   Scattered Clouds
2:53 PM 95.0 °F 100.7 °F 69.1 °F 43% 30.01 in 10.0 mi ESE 9.2 mph - N/A   Partly Cloudy
3:53 PM 96.1 °F 103.5 °F 71.1 °F 44% 30.00 in 10.0 mi SE 15.0 mph 20.7 mph N/A   Partly Cloudy
4:53 PM 93.9 °F 100.3 °F 70.0 °F 46% 30.00 in 10.0 mi ESE 10.4 mph - N/A   Partly Cloudy
5:53 PM 93.0 °F 99.0 °F 70.0 °F 47% 30.00 in 10.0 mi SSE 15.0 mph 21.9 mph N/A   Partly Cloudy
6:53 PM 89.1 °F 96.0 °F 72.0 °F 57% 30.02 in 10.0 mi SE 11.5 mph - N/A   Clear
7:53 PM 86.0 °F 93.0 °F 73.0 °F 65% 30.03 in 10.0 mi SSE 8.1 mph - N/A   Clear
8:53 PM 84.0 °F 90.2 °F 73.0 °F 69% 30.03 in 10.0 mi South 6.9 mph - N/A   Clear
9:53 PM 82.9 °F 89.4 °F 73.9 °F 74% 30.05 in 10.0 mi SE 3.5 mph - N/A   Clear
10:53 PM 82.0 °F 87.9 °F 73.9 °F 76% 30.05 in 10.0 mi South 4.6 mph - N/A   Clear
11:53 PM 80.1 °F 84.5 °F 73.9 °F 81% 30.05 in 10.0 mi South 3.5 mph - N/A   Clear